STARLINK-34736, 64846

Orbit data source: Space-Track

STARLINK-34736, 64846 is a payload satellite owned by SpaceX/Seattle (US) in SSO that was launched on Sat, 19 Jul 2025 UTC via an FALCON 9 launch vehicle from the Air Force Western Test Range (AFWTR). Payload-class satellites include a variety of spacecraft equipped with specific instruments for various scientific and technological missions. These include communications satellites like Starlink; space stations such as the ISS; scientific satellites like the Hubble; Earth observation satellites from companies like Planet Labs, Umbra, and HawkEye 360; GPS; miniature CubeSats for education and research; and military/defense satellites.

Loading next visibility...
Identifier
64846, 2025-152E
Orbit
SSO
Country
Flag of USUS
Related business
Manufacturer
SpaceX/Seattle
Mission
Operational Commercial Communications
Bus & Motor
STARLINK V2MO, Unknown motor
Mass
575 kg wet, ~530 kg dry
Launch date (UTC)
2025-07-19 (9 months ago)
Launch vehicle
FALCON 9
Launch site
Air Force Western Test Range (AFWTR)
Object type
Payload
Rocket body
Debris
Shape & HBR
Box + 2 Pan, 17.7 m
Radar Cross Section
36.964 m², Large (>1 m²)

Expand to show TLE details & history
Last TLE update: 10 hours ago

TLE from 10 hours ago
0 STARLINK-34736
1 64846U 25152E   26095.17070918  .00003571  00000-0  25161-3 0  9992
2 64846  97.6010 311.6243 0001521 103.1470 256.9927 15.05645452 39401
Epoch: 2026-04-05T04:05Z
TLE epoch observation values (Epoch: 2026-04-05T04:05:49.273Z)
Latitude
0.00004°
Longitude
56.68902°
Altitude
552.828 km
Speed
7.585 km/s
True Right ascension
20h 46m 29s
True Declination
0° 00' 00"
Sunlit
Object was in daylight at epoch
Visualization orbit readout
Latitude
Unknown
Longitude
Unknown
Altitude
Unknown
Speed
Unknown
Apparent Right ascension
Unknown
Apparent Declination
Unknown
Sunlit
N/A
Visualization observer readout
Local Sidereal Time
20:19:09
Azimuth
Unknown
Elevation
Unknown
Doppler factor
Unknown
Orbital elements
Apogee altitude
547.572 km
Perigee altitude
545.465 km
Semi-major axis
6,924.656 km
Eccentricity
0.00015
Inclination
97.601°
RAAN
311.6243°
Arg. of periapsis
103.147°
True anomaly
256.97572°
Mean anomaly
256.9927°
Eccentric anomaly
256.98421°
Mean motion
3.76657 °/min
Orbital period
95.58 mins
BSTAR
0.00025161
Loading maneuver chart data...
Computing Atmospheric mass density...
Loading historical data...
Loading historical data...
Loading historical data...
Loading historical data...
Loading historical data...
Loading historical data...
Loading historical data...

Documentation

Showing up to 5 results
|